Home > Weather > Juneau > Past weeks

Flag for USA Past Weather in Juneau, Alaska, USA — Yesterday and Last 2 Weeks

Now
54 °F

Light rain. Low clouds.


Feels Like: 50 °F
Forecast: 52 / 56 °F
Wind: 16 mph from Southeast

Location: Juneau International Airport

Current Time: Jul 24, 2016 at 2:44:42 AM

Latest Report: Jul 24, 2016 at 1:53 AM


Visibility: 10 mi

Pressure: 29.80 "Hg

Humidity: 90%

Dew Point: 51 °F

Location of JuneauLocation

Past Weather in Juneau — Graph

°F

Juneau Temperature Yesterday

Maximum temperature yesterday: 57 °F (at 2:53 PM)
Minimum temperature yesterday: 54 °F (at 10:53 PM)
Average temperature yesterday: 56 °F

High & Low Weather Summary for the Past Weeks

 TemperatureHumidityPressure
High82 °F (Jul 18, 5:53 PM)97% (Jul 14, 5:53 AM)30.35 "Hg (Jul 14, 5:53 AM)
Low52 °F (Jul 18, 4:53 AM)39% (Jul 18, 7:53 PM)29.68 "Hg (Jul 23, 12:53 PM)
Average61 °F78%30.01 "Hg
* Reported Jul 9 12:53 AM — Jul 24 12:53 AM, Juneau, Weather by CustomWeather, © 2016

Note: Actual official high and low records may vary slightly from our data, if they occured in-between our weather recording intervals... More about our weather records

Advertising

Juneau Weather History for the Previous 24 Hours

Scroll right to see more
 ConditionsComfort  
Time TempWeatherWind HumidityBarometerVisibility
12:53 AM
Sun, Jul 24
54 °FLight rain. Low clouds.21 mph90%29.80 "Hg10 mi
11:53 PM
Sat, Jul 23
54 °FLight rain. Mostly cloudy.12 mph90%29.79 "Hg10 mi
10:53 PM54 °FLight rain. Overcast.12 mph90%29.77 "Hg10 mi
9:53 PM55 °FLight rain. Cloudy.14 mph90%29.76 "Hg7 mi
8:53 PM55 °FLight rain. Cloudy.14 mph90%29.75 "Hg10 mi
7:53 PM56 °FRain. Fog.12 mph90%29.73 "Hg4 mi
6:53 PM56 °FLight rain. Cloudy.14 mph93%29.72 "Hg10 mi
5:53 PM57 °FMore clouds than sun.7 mph90%29.72 "Hg10 mi
4:53 PM57 °FLight rain. Fog.14 mph93%29.71 "Hg4 mi
3:53 PM57 °FLight rain. Mostly cloudy.16 mph90%29.70 "Hg7 mi
2:53 PM57 °FLight rain. Mostly cloudy.20 mph90%29.70 "Hg7 mi
1:53 PM56 °FRain. Fog.25 mph93%29.69 "Hg4 mi
12:53 PM56 °FLight rain. Fog.24 mph90%29.68 "Hg5 mi
11:57 AM56 °FLight rain. Cloudy.28 mph87%29.68 "Hg8 mi
10:53 AM56 °FLight rain. Mostly cloudy.28 mph90%29.70 "Hg7 mi
9:53 AM56 °FLight rain. Fog.24 mph90%29.71 "Hg4 mi
8:53 AM56 °FLight rain. Fog.23 mph90%29.72 "Hg4 mi
7:53 AM56 °FLight rain. Fog.23 mph90%29.72 "Hg4 mi
6:53 AM55 °FLight rain. Fog.17 mph93%29.74 "Hg6 mi
5:53 AM56 °FLight rain. Fog.22 mph90%29.75 "Hg3 mi
4:53 AM56 °FLight rain. Fog.23 mph90%29.77 "Hg6 mi
3:53 AM56 °FLight rain. Fog.22 mph90%29.79 "Hg6 mi
2:53 AM56 °FLight rain. Mostly cloudy.20 mph90%29.81 "Hg8 mi
Weather by CustomWeather, © 2016

See weather overviewHow to use our weather pages